Location: Walnut Point State Park
(39.6958°N, 88.0345°W)
Time: 04:26:00
(UTC-05:00)

Amateur Radio Satellites - All Passes

Search period start: 16 September 2014 03:56
Search period end: 17 September 2014 03:56
Location: Walnut Point State Park, 39.6958°N, 88.0345°W

Satellite Date Start Highest point End Downlink Frequencies (MHz)
Time Altitude Azimuth
AO-Echo 16 Sep 03:59:00 04:03:04 28° 292° (WNW) 04:07:12 ?
Saudisat 1A 16 Sep 04:04:19 04:08:17 33° 246° (WSW) 04:12:14 436.775 MHz
Oscar 19 16 Sep 04:16:41 04:18:27 12° 301° (WNW) 04:20:13 437.125 CW, 437.150 USB
KITSAT 1 16 Sep 04:18:25 04:25:37 34° 46° (NE) 04:32:46 435.175 FM
AO-27 16 Sep 04:22:35 04:26:34 23° 295° (WNW) 04:30:32 436.795 MHz FM
RS-15 16 Sep 04:35:00 04:45:37 54° 112° (ESE) 04:56:03 29.354 - 29.394 USB, Beacon 29.352 USB
PANSAT 16 Sep 04:37:00 04:39:10 15° 175° (S) 04:41:20 not established
Gurwin Techsat 1B 16 Sep 04:52:29 04:56:47 26° 294° (WNW) 05:01:04 435.225 FM
OPAL 16 Sep 04:56:31 05:01:37 65° 256° (WSW) 05:06:49 ?
Uosat F 16 Sep 05:04:50 05:09:48 59° 101° (ESE) 05:14:45 435.120 FM
JAS-1B 16 Sep 05:11:53 05:13:38 11° 305° (NW) 05:15:21 435.800 - 435.900 CW/SSB
ISS 16 Sep 05:28:07 05:30:57 25° 334° (NNW) 05:33:48 145.800 FM
Oscar 10/S400 16 Sep 05:28:42 05:56:31 11° 258° (WSW) 06:32:22 145.825 - 145.975 CW/USB, Beacon 145.810 USB
TMSAT-1 16 Sep 05:33:10 05:36:11 16° 299° (WNW) 05:39:13 436.925 FM
STRAND 1 16 Sep 05:33:26 05:36:26 16° 62° (ENE) 05:39:27 ?
Hamsat 16 Sep 05:37:43 05:39:29 12° 90° (E) 05:41:15 145.90 MHz
AO-7 16 Sep 05:38:05 05:46:24 86° 289° (WNW) 05:54:42 29.400 - 29.500 MHz
KITSAT 1 16 Sep 06:13:32 06:21:26 60° 247° (WSW) 06:29:18 435.175 FM
PANSAT 16 Sep 06:16:38 06:18:39 14° 188° (S) 06:20:40 not established
JAS-2 16 Sep 06:39:09 06:45:00 67° 102° (ESE) 06:51:38 435.800 - 435.900 CW/SSB, 435.910 FM
Uosat F 16 Sep 06:45:01 06:48:06 17° 298° (WNW) 06:51:11 435.120 FM
RS-15 16 Sep 06:47:43 06:58:08 46° 314° (NW) 07:08:33 29.354 - 29.394 USB, Beacon 29.352 USB
SO-50 16 Sep 07:06:32 07:10:00 19° 44° (NE) 07:13:30 436.795 FM
ISS 16 Sep 07:07:29 07:08:35 11° 354° (N) 07:09:41 145.800 FM
STRAND 1 16 Sep 07:10:04 07:15:05 63° 258° (WSW) 07:20:09 ?
Hamsat 16 Sep 07:11:36 07:15:46 52° 286° (WNW) 07:19:52 145.90 MHz
AO-7 16 Sep 07:32:36 07:38:03 20° 308° (NW) 07:43:30 29.400 - 29.500 MHz
SO-67 16 Sep 08:12:17 08:15:44 65° 284° (WNW) 08:19:08 435.3500 MHz FM
JAS-2 16 Sep 08:25:43 08:29:41 19° 296° (WNW) 08:33:56 435.800 - 435.900 CW/SSB, 435.910 FM
HO-68 16 Sep 08:43:54 08:49:05 21° 93° (E) 08:54:14 435.675 MHz FM
ISS 16 Sep 08:44:38 08:46:28 14° 14° (NNE) 08:48:18 145.800 FM
SO-50 16 Sep 08:46:12 08:50:58 62° 242° (WSW) 08:55:45 436.795 FM
MaSat-1 16 Sep 08:52:35 08:57:16 42° 109° (ESE) 09:02:01 437.345 MHz
UOSAT-12 16 Sep 09:05:31 09:09:17 23° 46° (NE) 09:12:59 437.025 FM, 437.400 FM
RS-15 16 Sep 09:07:03 09:14:21 19° 346° (NNW) 09:21:43 29.354 - 29.394 USB, Beacon 29.352 USB
Oscar 11 16 Sep 10:07:21 10:11:19 34° 97° (E) 10:15:16 145.825 FM, Beacon 2401.500 USB
UKube-1 16 Sep 10:19:59 10:24:20 66° 102° (ESE) 10:28:39 145.840 MHz, 145.915 MHz
ISS 16 Sep 10:20:34 10:23:49 48° 33° (NNE) 10:27:03 145.800 FM
MaSat-1 16 Sep 10:30:03 10:34:14 26° 305° (NW) 10:38:23 437.345 MHz
HO-68 16 Sep 10:30:11 10:37:19 69° 289° (WNW) 10:44:26 435.675 MHz FM
UOSAT-12 16 Sep 10:45:08 10:49:40 47° 244° (WSW) 10:54:06 437.025 FM, 437.400 FM
FUNcube-1 16 Sep 11:22:45 11:27:24 85° 284° (WNW) 11:32:00 145.950 - 145.970 MHz USB
RS-15 16 Sep 11:24:12 11:32:27 23° 24° (NNE) 11:40:50 29.354 - 29.394 USB, Beacon 29.352 USB
Oscar 11 16 Sep 11:44:03 11:47:16 21° 293° (WNW) 11:50:28 145.825 FM, Beacon 2401.500 USB
ISS 16 Sep 11:57:58 12:00:16 18° 229° (SW) 12:02:34 145.800 FM
UKube-1 16 Sep 11:58:27 11:59:58 12° 298° (WNW) 12:01:29 145.840 MHz, 145.915 MHz
Sapphire 16 Sep 12:09:46 12:13:49 22° 106° (ESE) 12:17:52 437.095 MHz 1200 baud AX-25 AFSK
JAS-1B 16 Sep 12:14:16 12:18:39 16° 57° (ENE) 12:22:42 435.800 - 435.900 CW/SSB
Oscar 19 16 Sep 12:14:21 12:17:09 15° 61° (ENE) 12:19:57 437.125 CW, 437.150 USB
HO-68 16 Sep 12:20:41 12:23:44 13° 308° (NW) 12:26:48 435.675 MHz FM
PCSat 16 Sep 12:36:00 12:41:01 41° 111° (ESE) 12:46:05 145.825 MHz
Oscar 16 16 Sep 12:50:23 12:54:57 33° 68° (ENE) 12:59:33 437.025 USB, Beacon 2401.1428
ITAMSAT 1 16 Sep 13:26:29 13:30:54 30° 67° (ENE) 13:35:20 435.822 SSB
Uribyol 2 16 Sep 13:31:21 13:35:59 35° 68° (ENE) 13:40:39 436.500 FM
AO-Echo 16 Sep 13:32:35 13:36:55 35° 70° (ENE) 13:41:12 ?
TMSAT-1 16 Sep 13:35:27 13:37:40 13° 60° (ENE) 13:39:53 436.925 FM
RS-15 16 Sep 13:36:40 13:47:40 62° 52° (NE) 13:59:05 29.354 - 29.394 USB, Beacon 29.352 USB
Oscar 19 16 Sep 13:50:42 13:55:52 71° 258° (WSW) 14:01:04 437.125 CW, 437.150 USB
Sapphire 16 Sep 13:51:37 13:56:51 50° 303° (WNW) 14:02:07 437.095 MHz 1200 baud AX-25 AFSK
JAS-1B 16 Sep 13:59:23 14:08:20 76° 73° (ENE) 14:15:52 435.800 - 435.900 CW/SSB
AO-27 16 Sep 13:59:43 14:04:48 62° 73° (ENE) 14:09:55 436.795 MHz FM
PCSat 16 Sep 14:19:53 14:24:32 29° 309° (NW) 14:29:14 145.825 MHz
Oscar 16 16 Sep 14:29:47 14:34:15 29° 264° (W) 14:38:47 437.025 USB, Beacon 2401.1428
Gurwin Techsat 1B 16 Sep 14:32:18 14:37:29 58° 72° (ENE) 14:42:41 435.225 FM
AO-7 16 Sep 14:45:35 14:52:07 27° 56° (NE) 14:58:38 29.400 - 29.500 MHz
ITAMSAT 1 16 Sep 15:05:43 15:10:18 32° 263° (W) 15:14:54 435.822 SSB
Oscar 10/S400 16 Sep 15:10:30 15:27:12 28° 147° (SSE) 15:44:34 145.825 - 145.975 CW/USB, Beacon 145.810 USB
Uribyol 2 16 Sep 15:11:09 15:15:29 27° 265° (W) 15:19:51 436.500 FM
TMSAT-1 16 Sep 15:11:33 15:16:50 84° 257° (WSW) 15:22:10 436.925 FM
AO-Echo 16 Sep 15:12:03 15:15:46 22° 265° (W) 15:19:27 ?
AO-27 16 Sep 15:41:51 15:44:43 15° 269° (W) 15:47:36 436.795 MHz FM
RS-15 16 Sep 15:49:38 15:59:29 38° 253° (WSW) 16:09:44 29.354 - 29.394 USB, Beacon 29.352 USB
JAS-1B 16 Sep 15:52:41 15:59:12 22° 266° (W) 16:05:05 435.800 - 435.900 CW/SSB
Gurwin Techsat 1B 16 Sep 16:14:28 16:17:48 17° 268° (W) 16:21:09 435.225 FM
Uosat F 16 Sep 16:17:16 16:22:14 75° 74° (ENE) 16:27:14 435.120 FM
AO-7 16 Sep 16:35:53 16:44:10 72° 255° (WSW) 16:52:29 29.400 - 29.500 MHz
JAS-2 16 Sep 16:52:55 16:56:56 22° 65° (ENE) 17:00:51 435.800 - 435.900 CW/SSB, 435.910 FM
OPAL 16 Sep 17:07:34 17:12:19 35° 99° (E) 17:16:58 ?
Uosat F 16 Sep 17:59:59 18:01:32 11° 270° (W) 18:03:06 435.120 FM
Hamsat 16 Sep 18:03:31 18:07:52 84° 258° (WSW) 18:12:16 145.90 MHz
Saudisat 1A 16 Sep 18:09:19 18:13:41 76° 120° (ESE) 18:18:07 436.775 MHz
AO-7 16 Sep 18:35:37 18:38:15 12° 272° (W) 18:40:55 29.400 - 29.500 MHz
JAS-2 16 Sep 18:36:45 18:41:50 41° 261° (W) 18:46:43 435.800 - 435.900 CW/SSB, 435.910 FM
SO-67 16 Sep 18:44:28 18:47:34 32° 73° (ENE) 18:50:41 435.3500 MHz FM
OPAL 16 Sep 18:46:40 18:51:01 28° 296° (WNW) 18:55:19 ?
MaSat-1 16 Sep 18:47:00 18:50:55 65° 63° (ENE) 18:54:14 437.345 MHz
KITSAT 1 16 Sep 18:47:45 18:53:34 22° 103° (ESE) 18:59:22 435.175 FM
HO-68 16 Sep 19:13:41 19:17:40 16° 54° (NE) 19:21:40 435.675 MHz FM
STRAND 1 16 Sep 19:21:29 19:26:26 47° 100° (E) 19:31:22 ?
Saudisat 1A 16 Sep 19:51:19 19:53:48 15° 318° (NW) 19:56:17 436.775 MHz
SO-67 16 Sep 20:19:06 20:20:42 13° 268° (W) 20:22:18 435.3500 MHz FM
KITSAT 1 16 Sep 20:40:00 20:48:05 77° 301° (WNW) 20:56:13 435.175 FM
HO-68 16 Sep 20:57:10 21:04:18 83° 72° (ENE) 21:11:29 435.675 MHz FM
Sapphire 16 Sep 20:57:56 21:01:38 18° 45° (NE) 21:05:18 437.095 MHz 1200 baud AX-25 AFSK
STRAND 1 16 Sep 21:01:31 21:05:16 21° 296° (WNW) 21:09:01 ?
Oscar 11 16 Sep 21:01:53 21:05:27 25° 69° (ENE) 21:09:03 145.825 FM, Beacon 2401.500 USB
UKube-1 16 Sep 21:14:36 21:18:48 51° 73° (ENE) 21:23:01 145.840 MHz, 145.915 MHz
PCSat 16 Sep 21:24:42 21:29:27 30° 51° (NE) 21:34:09 145.825 MHz
FUNcube-1 16 Sep 22:18:08 22:22:26 69° 75° (ENE) 22:26:54 145.950 - 145.970 MHz USB
Oscar 11 16 Sep 22:37:49 22:41:32 27° 264° (W) 22:45:17 145.825 FM, Beacon 2401.500 USB
KITSAT 1 16 Sep 22:39:06 22:44:54 21° 324° (NW) 22:50:44 435.175 FM
Sapphire 16 Sep 22:40:13 22:45:39 75° 244° (WSW) 22:51:02 437.095 MHz 1200 baud AX-25 AFSK
HO-68 16 Sep 22:48:28 22:52:45 17° 269° (W) 22:57:03 435.675 MHz FM
UKube-1 16 Sep 22:53:13 22:55:17 13° 268° (W) 22:57:22 145.840 MHz, 145.915 MHz
SO-50 16 Sep 23:00:22 23:04:41 53° 117° (ESE) 23:09:08 436.795 FM
PCSat 16 Sep 23:07:54 23:12:56 40° 249° (WSW) 23:17:56 145.825 MHz
SO-50 17 Sep 00:42:16 00:45:34 20° 316° (NW) 00:48:56 436.795 FM
UOSAT-12 17 Sep 00:55:03 00:59:36 64° 119° (ESE) 01:04:16 437.025 FM, 437.400 FM
Oscar 16 17 Sep 01:05:04 01:06:45 12° 89° (E) 01:08:26 437.025 USB, Beacon 2401.1428
AO-Echo 17 Sep 01:42:11 01:43:57 12° 91° (E) 01:45:44 ?
ITAMSAT 1 17 Sep 01:42:52 01:43:46 10° 89° (E) 01:44:39 435.822 SSB
Uribyol 2 17 Sep 01:46:34 01:48:53 13° 90° (E) 01:51:12 436.500 FM
JAS-1B 17 Sep 01:48:28 01:51:37 15° 90° (E) 01:54:45 435.800 - 435.900 CW/SSB
Oscar 19 17 Sep 02:03:20 02:08:17 44° 99° (E) 02:13:10 437.125 CW, 437.150 USB
AO-27 17 Sep 02:14:14 02:18:23 24° 95° (E) 02:22:32 436.795 MHz FM
Saudisat 1A 17 Sep 02:36:52 02:41:09 47° 54° (NE) 02:45:24 436.775 MHz
UOSAT-12 17 Sep 02:36:58 02:40:12 18° 317° (NW) 02:43:27 437.025 FM, 437.400 FM
KITSAT 1 17 Sep 02:40:16 02:44:18 14° 26° (NNE) 02:48:19 435.175 FM
Oscar 16 17 Sep 02:41:28 02:46:40 78° 285° (WNW) 02:51:49 437.025 USB, Beacon 2401.1428
Gurwin Techsat 1B 17 Sep 02:49:57 02:54:15 25° 94° (E) 02:58:32 435.225 FM
ISS 17 Sep 03:02:49 03:05:32 24° 133° (SE) 03:08:16 145.800 FM
AO-Echo 17 Sep 03:18:21 03:23:09 69° 285° (WNW) 03:28:03 ?
ITAMSAT 1 17 Sep 03:18:38 03:23:52 85° 285° (WNW) 03:29:05 435.822 SSB
Uribyol 2 17 Sep 03:23:39 03:28:51 72° 286° (WNW) 03:34:03 436.500 FM
TMSAT-1 17 Sep 03:28:26 03:33:27 41° 98° (E) 03:38:26 436.925 FM
JAS-1B 17 Sep 03:37:11 03:42:56 61° 288° (WNW) 03:48:31 435.800 - 435.900 CW/SSB
Oscar 19 17 Sep 03:43:22 03:47:18 22° 295° (WNW) 03:51:13 437.125 CW, 437.150 USB
